sat.trackr.live / text

‹ back to catalog

STARLINK-32671

NORAD 62209 · 2024-229T

PAYLOAD ACTIVE UNKNOWN

§ Identity

Operator
Country
US
Launch date
2024-12-04
Launch site
AFETR
Launch vehicle
Mass (kg)
RCS (m²)

Purposes: comms

External: N2YO · Heavens-Above · Gunter

§ Orbital elements

Epoch: 2026-09-21T07:23:57.727392Z

Period
94.27 min
Inclination
42.9981°
Eccentricity
0.0001297
Mean motion
15.27585116 rev/d
Perigee alt
482.1 km
Apogee alt
483.9 km
Semi-major
6,861.2 km
B*
3.4201e-4
RAAN
246.3924°
Arg perigee
270.0593°
Mean anomaly
90.0110°
Rev number
10,047

§ Raw data

STARLINK-326711 62209U 24229T   26264.30830703  .00009163  00000+0  34201-3 0  99932 62209  42.9981 246.3924 0001297 270.0593  90.0110 15.27585116100473

JSON: /api/v1/satellites/62209 · /tle

For live sub-satellite position, see the globe view (requires WebGL).

§ Visibility from observer

Set your observer location to see the next 7 days of passes ≥ 10°. The values pass through the URL so the page stays shareable.

No JS? Fill the form by hand. The geolocation button needs JavaScript.